Flag for Lebanon Weather past 2 weeks in Sidon, Lebanon

Now
68 °F

Passing clouds.


Feels Like: 68 °F
Forecast: 62 / 79 °F
Wind: 7 mph from West

Location: Beirut Airport

Current Time: Apr 19, 2015 at 4:38:28 PM

Latest Report: Apr 19, 2015 at 4:00 PM


Visibility: 5 mi

Pressure: 30.09 "Hg

Humidity: 64%

Dew point: 55 °F

Location of SidonLocation

Historic Weather in Sidon — Graph

°F

Sidon temperature yesterday

Maximum temperature yesterday: 68 °F (at 1:00 PM)
Minimum temperature yesterday: 59 °F (at 5:00 AM)
Average temperature yesterday: 64 °F

Past Weeks' High & Low Weather Summary

 TemperatureHumidityPressure
High93 °F (Apr 9, 12:00 AM)83% (Apr 7, 1:00 AM)30.30 "Hg (Apr 7, 1:00 AM)
Low52 °F (Apr 12, 2:00 AM)9% (Apr 9, 1:00 AM)29.56 "Hg (Apr 9, 1:00 AM)
Average63 °F64%30.03 "Hg
* Reported Apr 4 3:00 PM — Apr 19 3:00 PM, Sidon, Weather by CustomWeather, © 2015

Note: Actual official high and low records may vary slightly from our data, if they occured in-between our weather recording intervals... More about our weather records

Advertising

Sidon weather history for previous 24 hours

 ConditionsComfort  
Time TempWeatherWind HumidityBarometerVisibility
3:00 PM
Sun, Apr 19
68 °FPassing clouds.8 mph69%30.12 "Hg5 mi
2:00 PM68 °FPassing clouds.7 mph69%30.15 "Hg5 mi
1:00 PM66 °FPassing clouds.8 mph68%30.15 "Hg5 mi
12:00 PM66 °FSunny.7 mph68%30.15 "Hg5 mi
11:00 AM66 °FSunny.7 mph68%30.15 "Hg5 mi
10:00 AM64 °FSunny.6 mph68%30.15 "Hg5 mi
9:00 AM64 °FSunny.5 mph68%30.15 "Hg5 mi
8:00 AM61 °FSunny.3 mph72%30.15 "Hg5 mi
7:00 AM59 °FClear.2 mph77%30.12 "Hg5 mi
6:00 AM59 °FClear.3 mph72%30.12 "Hg5 mi
5:00 AM59 °FClear.5 mph77%30.12 "Hg5 mi
4:00 AM59 °FClear.5 mph77%30.15 "Hg5 mi
3:00 AM59 °FClear.6 mph77%30.15 "Hg5 mi
2:00 AM61 °FPassing clouds.5 mph77%30.18 "Hg4 mi
1:00 AM61 °FPassing clouds.5 mph77%30.18 "Hg4 mi
11:00 PM
Sat, Apr 18
61 °FFog.5 mph83%30.21 "Hg3 mi
10:00 PM61 °FFog.5 mph77%30.21 "Hg3 mi
9:00 PM63 °FFog.7 mph77%30.21 "Hg3 mi
8:00 PM63 °FScattered clouds.7 mph73%30.18 "Hg5 mi
7:00 PM64 °FScattered clouds.5 mph73%30.18 "Hg5 mi
6:00 PM66 °FScattered clouds.6 mph68%30.18 "Hg5 mi
5:00 PM66 °FScattered clouds.7 mph68%30.18 "Hg5 mi
4:00 PM68 °FScattered clouds.8 mph69%30.21 "Hg5 mi
Weather by CustomWeather, © 2015

See weather overviewHow to use our weather pages